TimeEDT,TemperatureF,Dew PointF,Humidity,Sea Level PressureIn,VisibilityMPH,Wind Direction,Wind SpeedMPH,Gust SpeedMPH,PrecipitationIn,Events,Conditions,WindDirDegrees,DateUTC
12:53 AM,73.0,70.0,90,30.01,10.0,ESE,4.6,-,N/A,,Overcast,120,2013-04-11 04:53:00
1:53 AM,72.0,70.0,93,30.00,10.0,ESE,4.6,-,N/A,,Partly Cloudy,120,2013-04-11 05:53:00
2:40 AM,71.6,69.8,94,29.98,9.0,ESE,4.6,-,N/A,,Mostly Cloudy,120,2013-04-11 06:40:00
2:53 AM,71.1,70.0,96,29.98,9.0,ESE,4.6,-,N/A,,Overcast,120,2013-04-11 06:53:00
3:24 AM,71.6,69.8,94,29.97,9.0,ESE,5.8,-,N/A,,Scattered Clouds,120,2013-04-11 07:24:00
3:53 AM,71.1,69.1,93,29.97,8.0,ESE,5.8,-,N/A,,Mostly Cloudy,120,2013-04-11 07:53:00
4:04 AM,71.6,69.8,94,29.96,8.0,ESE,5.8,-,N/A,,Scattered Clouds,120,2013-04-11 08:04:00
4:53 AM,71.1,69.1,93,29.96,9.0,SE,6.9,-,N/A,,Partly Cloudy,130,2013-04-11 08:53:00
5:32 AM,71.6,69.8,94,29.96,9.0,ESE,5.8,-,N/A,,Mostly Cloudy,110,2013-04-11 09:32:00
5:42 AM,71.6,69.8,94,29.96,9.0,ESE,6.9,-,N/A,,Scattered Clouds,110,2013-04-11 09:42:00
5:53 AM,70.0,69.1,97,29.96,9.0,ESE,6.9,-,N/A,,Mostly Cloudy,120,2013-04-11 09:53:00
6:08 AM,71.6,69.8,94,29.96,9.0,ESE,8.1,-,N/A,,Mostly Cloudy,120,2013-04-11 10:08:00
6:46 AM,71.6,69.8,94,29.96,10.0,ESE,9.2,-,N/A,,Scattered Clouds,120,2013-04-11 10:46:00
6:53 AM,71.1,69.1,93,29.97,10.0,SE,9.2,-,N/A,,Partly Cloudy,130,2013-04-11 10:53:00
7:53 AM,72.0,70.0,93,29.99,10.0,SE,8.1,-,N/A,,Scattered Clouds,130,2013-04-11 11:53:00
8:31 AM,73.4,71.6,94,29.99,10.0,SE,12.7,-,N/A,,Scattered Clouds,140,2013-04-11 12:31:00
8:53 AM,75.0,71.1,87,29.99,10.0,SE,12.7,-,N/A,,Mostly Cloudy,140,2013-04-11 12:53:00
9:53 AM,79.0,70.0,74,30.00,10.0,SE,17.3,-,N/A,,Mostly Cloudy,140,2013-04-11 13:53:00
10:53 AM,82.9,70.0,65,30.01,10.0,SSE,12.7,25.3,N/A,,Mostly Cloudy,150,2013-04-11 14:53:00
11:11 AM,82.4,69.8,66,30.00,10.0,SSE,17.3,23.0,N/A,,Overcast,150,2013-04-11 15:11:00
11:18 AM,82.4,69.8,66,30.00,10.0,SSE,13.8,23.0,N/A,,Mostly Cloudy,150,2013-04-11 15:18:00
11:31 AM,82.4,69.8,66,30.00,10.0,SSE,19.6,-,N/A,,Mostly Cloudy,160,2013-04-11 15:31:00
11:53 AM,84.9,69.1,59,29.99,10.0,SE,16.1,24.2,N/A,,Mostly Cloudy,140,2013-04-11 15:53:00
1:53 PM,88.0,68.0,51,29.95,10.0,SE,13.8,-,N/A,,Mostly Cloudy,130,2013-04-11 17:53:00
2:53 PM,88.0,66.9,49,29.92,10.0,SSE,13.8,-,N/A,,Mostly Cloudy,160,2013-04-11 18:53:00
3:53 PM,80.1,71.1,74,29.91,10.0,SE,9.2,21.9,0.00,Rain,Light Rain,130,2013-04-11 19:53:00
4:53 PM,84.0,73.0,69,29.89,10.0,South,13.8,21.9,0.01,,Overcast,180,2013-04-11 20:53:00
5:53 PM,84.9,71.1,63,29.88,10.0,South,12.7,-,0.01,,Clear,190,2013-04-11 21:53:00
6:53 PM,82.9,72.0,69,29.88,10.0,South,6.9,-,N/A,,Partly Cloudy,170,2013-04-11 22:53:00
7:53 PM,80.1,71.1,74,29.89,10.0,South,6.9,-,N/A,,Scattered Clouds,180,2013-04-11 23:53:00
8:02 PM,80.6,71.6,74,29.88,10.0,SSE,5.8,-,N/A,,Mostly Cloudy,150,2013-04-12 00:02:00
8:23 PM,78.8,71.6,78,29.89,10.0,SSE,15.0,-,N/A,,Scattered Clouds,160,2013-04-12 00:23:00
8:53 PM,77.0,71.1,82,29.89,10.0,SSE,8.1,-,N/A,,Partly Cloudy,160,2013-04-12 00:53:00
9:53 PM,75.9,72.0,87,29.88,10.0,SSE,10.4,-,N/A,,Clear,150,2013-04-12 01:53:00
10:53 PM,75.0,71.1,87,29.89,10.0,SSE,9.2,-,N/A,,Clear,160,2013-04-12 02:53:00
11:53 PM,75.9,71.1,85,29.90,10.0,SSE,10.4,-,N/A,,Mostly Cloudy,160,2013-04-12 03:53:00